Location: Caipauro
(10.3514°N, 66.8532°W)
Time: 07:58:08
(UTC+00:00)

Daily predictions for brighter satellites

Satellite Brightness Start Highest point End
(mag) Time Altitude Azimuth Time Altitude Azimuth Time Altitude Azimuth
Cosmos 2322 Rocket 3.1 22:48:00 10° NNW 22:53:27 56° WSW 22:58:54 10° S
USA 234 4.4 22:49:10 10° E 22:53:59 22° NE 22:58:47 10° N
SPOT 1/Viking Rocket 3.5 22:49:38 10° SSE 22:54:45 76° ENE 22:59:51 10° N
Cosmos 1447 Rocket 4.5 22:50:11 10° S 22:56:21 82° E 23:02:28 10° N
Cosmos 2227 Rocket 2.3 22:53:10 10° S 22:58:37 53° ESE 23:04:04 10° NNE
Cosmos 2344 4.0 22:47:53 10° SSW 22:58:48 73° ESE 23:06:43 10° NNE
SAR-Lupe-1 4.0 22:56:27 10° SSE 22:59:57 63° ENE 23:03:27 10° N
Cosmos 2219 Rocket 2.1 22:57:17 10° NNW 23:02:51 80° ENE 23:08:25 10° SSE
BREEZE-M DEB (TANK) 4.2 23:00:27 10° S 23:03:23 15° SSE 23:05:05 10° ESE
Aureole 3 Rocket 4.0 23:04:27 10° NE 23:05:53 13° E 23:07:20 10° ESE
ARIANE 3 DEB 4.2 23:01:21 10° W 23:08:22 63° S 23:14:05 11° E
Cosmos 1602 3.8 23:07:09 10° SSE 23:09:34 27° E 23:11:59 10° NNE
ARIANE 5 R/B 4.0 23:05:59 10° SW 23:10:34 41° SSE 23:29:42 12° E
Cosmos 1315 Rocket 2.6 23:06:59 10° N 23:10:45 74° E 23:14:33 10° S
CARTOSAT-1 4.0 23:10:55 10° SE 23:14:46 36° ENE 23:18:37 10° N
SAR-Lupe-4 4.1 23:12:33 10° S 23:16:03 62° WSW 23:19:34 10° NNW
Helios 1A Rocket 2.2 23:13:07 10° NNE 23:16:22 80° ESE 23:19:37 10° S
GPS 2-15 Rocket1 3.3 23:13:20 10° WSW 23:18:02 61° SSE 23:21:33 17° E
Cosmos 1346 Rocket 3.4 23:15:38 10° SSE 23:18:44 28° E 23:21:33 12° NE
BlueWalker 3 3.5 23:18:49 10° NNE 23:20:48 15° NE 23:20:48 15° NE
SWIFT 4.2 23:21:48 10° S 23:22:42 11° SSE 23:23:34 10° SE
Delta 128 3.9 23:17:44 10° SW 23:22:55 64° SSE 23:26:07 20° ENE
CZ-3 Stage 3 3.4 23:11:18 10° NW 23:25:04 36° N 23:28:31 19° ENE
Cosmos 1975 Rocket 2.9 23:28:24 10° S 23:32:48 78° E 23:37:09 10° N
Milstar 3 3.9 23:25:22 10° NW 23:33:20 58° NNE 23:45:01 16° ESE
Cosmos 2151 Rocket 4.4 23:29:09 10° NNW 23:33:31 54° W 23:37:53 10° S
Cosmos 1356 Rocket 4.0 23:31:35 10° NNW 23:35:29 57° W 23:39:26 10° S
Cosmos 2233 Rocket 4.5 23:29:17 10° NNW 23:35:30 66° W 23:41:45 10° S
YAOGAN 1 3.5 23:33:03 10° S 23:37:10 50° W 23:41:17 10° NNW
Ariane H10 3.3 23:40:27 10° WSW 23:42:26 20° SSW 23:42:30 20° SSW
YAOGAN 3 4.3 23:39:04 10° SSE 23:43:14 72° ENE 23:47:25 10° N
Cosmos 546 4.4 23:42:11 10° SW 23:45:57 89° NW 23:47:12 40° NE
SL-24 R/B 4.4 23:41:59 10° SSE 23:46:02 61° ENE 23:50:09 10° N
Ariane H10+ 2.8 23:49:00 10° WSW 23:52:48 25° SSW 23:53:27 23° S
Radarsat Rocket 4.1 23:46:52 10° S 23:52:50 75° WSW 23:58:37 10° NNW
Cosmos 1455 Rocket 2.9 23:48:46 10° N 23:52:58 58° E 23:57:12 10° SSE
NOAA 6 4.2 23:48:29 10° S 23:53:35 74° WSW 23:58:41 10° NNW
Cosmos 2219 3.2 23:48:39 10° S 23:54:13 57° ESE 23:56:46 31° NE
